Location: 81360 Arifat, France
(43.7204°N, 2.3408°E)
Time: 13:58:23
(UTC+02:00)

STARLINK-3069 - Pass Details

Date: 29 September 2021
Orbit: 357 x 362 km, 70.0° (Epoch: 18 October)

Event Time Altitude Azimuth Distance (km) Brightness Sun altitude
Rises 07:09:26 0° 162° (SSE) 2,176 6.9 -7.4°
Reaches altitude 10° 07:12:23 10° 128° (SE) 1,340 6.4 -6.9°
Maximum altitude 07:13:31 12° 105° (ESE) 1,247 6.8 -6.7°
Drops below altitude 10° 07:14:40 10° 82° (E) 1,347 7.4 -6.5°
Sets 07:17:39 0° 48° (NE) 2,203 7.6 -5.9°
